User: anonymous   Login
Location: Unspecified
(0.0000°N, 0.0000°E)
Time: 10:17:30
(UTC+00:00)
Language:

ASUSAT - Orbit

View from above orbital plane
View from above orbital plane
View from above satellite
View from above satellite

Ground track
Ground track

The orbit data is extracted from the following two-line orbital elements,

1 26065U 00004E   21168.72105142 -.00000003  00000-0  18708-4 0  9995
2 26065 100.1933 104.6420 0037058 145.9227 214.4343 14.36940536121295
Epoch (UTC): 17 June 2021 17:18:18
Eccentricity: 0.0037058
inclination: 100.1933°
perigee height: 742 km
apogee height: 795 km
right ascension of ascending node: 104.6420°
argument of perigee: 145.9227°
revolutions per day: 14.36940536
mean anomaly at epoch: 214.4343°
orbit number at epoch: 12129

The dashed part of the orbit path shows where the satellite is in the earth's shadow,  

DLR